| time (UTC) | temp F | wind direction | speed knots | gust knots | rain 1hr in | rain 24hr in | rain mn in | humidity % | barometer mb |
| 20260504034023 | 60 | 324 | 1.7 | 2.6 | 0.00 | 0.00 | 0.00 | 79 | 1018.9 |
| 20260504033024 | 60 | 337 | 1.7 | 1.7 | 0.00 | 0.00 | 0.00 | 79 | 1018.9 |
| 20260504032024 | 60 | 306 | 0.9 | 1.7 | 0.00 | 0.00 | 0.00 | 79 | 1018.9 |
| 20260504031023 | 60 | 322 | 0.9 | 1.7 | 0.00 | 0.00 | 0.00 | 79 | 1019.0 |
| 20260504025021 | 60 | 304 | 0.9 | 0.9 | 0.00 | 0.00 | 0.00 | 80 | 1019.0 |
| 20260504024022 | 60 | 314 | 0.9 | 1.7 | 0.00 | 0.00 | 0.00 | 80 | 1018.9 |
| 20260504023022 | 61 | 316 | 0.9 | 1.7 | 0.00 | 0.00 | 0.00 | 81 | 1018.8 |
| 20260504022022 | 61 | 296 | 0.9 | 1.7 | 0.00 | 0.00 | 0.00 | 79 | 1018.7 |
| 20260504021022 | 62 | 305 | 0.9 | 0.9 | 0.00 | 0.00 | 0.00 | 77 | 1018.5 |
| 20260504020022 | 63 | 306 | 0.9 | 1.7 | 0.00 | 0.00 | 0.00 | 76 | 1018.5 |
| 20260504015022 | 65 | 296 | 0.9 | 0.9 | 0.00 | 0.00 | 0.00 | 74 | 1018.2 |
| 20260504014022 | 67 | 307 | 0.9 | 0.9 | 0.00 | 0.00 | 0.00 | 71 | 1018.1 |
| 20260504013023 | 68 | 312 | 0.9 | 1.7 | 0.00 | 0.00 | 0.00 | 67 | 1018.1 |
| 20260504012022 | 69 | 277 | 0.9 | 1.7 | 0.00 | 0.00 | 0.00 | 65 | 1017.9 |
| 20260504011023 | 69 | 228 | 0.9 | 2.6 | 0.00 | 0.00 | 0.00 | 66 | 1017.8 |
| 20260504010023 | 69 | 238 | 1.7 | 3.5 | 0.00 | 0.00 | 0.00 | 67 | 1017.8 |
| 20260504005023 | 69 | 239 | 1.7 | 3.5 | 0.00 | 0.00 | 0.00 | 69 | 1017.8 |
| 20260504004021 | 69 | 226 | 1.7 | 5.2 | 0.00 | 0.00 | 0.00 | 66 | 1017.7 |
| 20260504003023 | 69 | 221 | 1.7 | 3.5 | 0.00 | 0.00 | 0.00 | 66 | 1017.7 |
| 20260504002024 | 70 | 222 | 1.7 | 4.3 | 0.00 | 0.00 | 0.00 | 65 | 1017.6 |
| 20260504001024 | 70 | 219 | 1.7 | 3.5 | 0.00 | 0.00 | 0.00 | 64 | 1017.5 |
| 20260504000024 | 70 | 241 | 1.7 | 3.5 | 0.00 | 0.00 | 0.00 | 63 | 1017.6 |
| 20260503235024 | 71 | 228 | 1.7 | 3.5 | 0.00 | 0.00 | 0.00 | 63 | 1017.6 |
| 20260503234024 | 71 | 225 | 1.7 | 4.3 | 0.00 | 0.00 | 0.00 | 62 | 1017.6 |
| 20260503233021 | 71 | 219 | 2.6 | 6.1 | 0.00 | 0.00 | 0.00 | 60 | 1017.5 |
| 20260503232045 | 72 | 224 | 1.7 | 3.5 | 0.00 | 0.00 | 0.00 | 59 | 1017.6 |
| 20260503231044 | 72 | 225 | 0.9 | 2.6 | 0.00 | 0.00 | 0.00 | 59 | 1017.6 |
| 20260503230022 | 73 | 212 | 2.6 | 5.2 | 0.00 | 0.00 | 0.00 | 58 | 1017.6 |
| 20260503225022 | 73 | 231 | 1.7 | 4.3 | 0.00 | 0.00 | 0.00 | 56 | 1017.7 |
| 20260503224022 | 73 | 214 | 1.7 | 6.1 | 0.00 | 0.00 | 0.00 | 55 | 1017.6 |
| 20260503223022 | 73 | 215 | 1.7 | 6.1 | 0.00 | 0.00 | 0.00 | 53 | 1017.6 |
| 20260503222022 | 73 | 219 | 2.6 | 6.1 | 0.00 | 0.00 | 0.00 | 50 | 1017.5 |
| 20260503221022 | 73 | 214 | 1.7 | 6.1 | 0.00 | 0.00 | 0.00 | 50 | 1017.5 |
| 20260503220023 | 73 | 223 | 2.6 | 6.1 | 0.00 | 0.00 | 0.00 | 52 | 1017.6 |
| 20260503215017 | 74 | 213 | 2.6 | 6.1 | 0.00 | 0.00 | 0.00 | 53 | 1017.7 |
| 20260503214017 | 74 | 200 | 2.6 | 7.0 | 0.00 | 0.00 | 0.00 | 53 | 1017.8 |
| 20260503213023 | 74 | 204 | 2.6 | 7.0 | 0.00 | 0.00 | 0.00 | 52 | 1018.0 |
| 20260503212020 | 74 | 214 | 2.6 | 7.0 | 0.00 | 0.00 | 0.00 | 52 | 1018.0 |
| 20260503211018 | 74 | 214 | 2.6 | 6.1 | 0.00 | 0.00 | 0.00 | 51 | 1018.2 |
| 20260503210018 | 74 | 221 | 2.6 | 6.1 | 0.00 | 0.00 | 0.00 | 50 | 1018.2 |
| 20260503205018 | 75 | 214 | 2.6 | 7.8 | 0.00 | 0.00 | 0.00 | 50 | 1018.3 |
| 20260503204018 | 75 | 215 | 1.7 | 6.1 | 0.00 | 0.00 | 0.00 | 47 | 1018.3 |
| 20260503203021 | 75 | 205 | 1.7 | 5.2 | 0.00 | 0.00 | 0.00 | 47 | 1018.4 |
| 20260503202018 | 76 | 215 | 1.7 | 5.2 | 0.00 | 0.00 | 0.00 | 46 | 1018.6 |
| 20260503201028 | 77 | 172 | 1.7 | 3.5 | 0.00 | 0.00 | 0.00 | 45 | 1018.7 |
| 20260503200027 | 77 | 348 | 0.9 | 2.6 | 0.00 | 0.00 | 0.00 | 40 | 1018.7 |
| 20260503195021 | 76 | 1 | 1.7 | 4.3 | 0.00 | 0.00 | 0.00 | 39 | 1018.9 |
| 20260503194019 | 76 | 5 | 2.6 | 7.0 | 0.00 | 0.00 | 0.00 | 40 | 1019.1 |
| 20260503193019 | 77 | 7 | 3.5 | 7.8 | 0.00 | 0.00 | 0.00 | 39 | 1019.4 |
| 20260503192028 | 77 | 359 | 1.7 | 4.3 | 0.00 | 0.00 | 0.00 | 41 | 1019.5 |
| 20260503191039 | 77 | 5 | 1.7 | 5.2 | 0.00 | 0.00 | 0.00 | 42 | 1019.7 |
| 20260503190019 | 77 | 347 | 0.9 | 3.5 | 0.00 | 0.00 | 0.00 | 43 | 1019.9 |
| 20260503185019 | 76 | 2 | 1.7 | 5.2 | 0.00 | 0.00 | 0.00 | 39 | 1019.9 |
| 20260503184020 | 76 | 353 | 1.7 | 6.1 | 0.00 | 0.00 | 0.00 | 40 | 1020.2 |
| 20260503183017 | 76 | 343 | 0.9 | 3.5 | 0.00 | 0.00 | 0.00 | 41 | 1020.2 |
| 20260503182020 | 75 | 346 | 0.9 | 5.2 | 0.00 | 0.00 | 0.00 | 41 | 1020.3 |
| 20260503181020 | 76 | 358 | 1.7 | 5.2 | 0.00 | 0.00 | 0.00 | 41 | 1020.4 |
| 20260503180020 | 75 | 329 | 0.9 | 3.5 | 0.00 | 0.00 | 0.00 | 41 | 1020.4 |
| 20260503175017 | 74 | 347 | 1.7 | 4.3 | 0.00 | 0.00 | 0.00 | 42 | 1020.5 |
| 20260503174021 | 75 | 4 | 1.7 | 5.2 | 0.00 | 0.00 | 0.00 | 41 | 1020.5 |
| 20260503173021 | 74 | 352 | 0.9 | 6.1 | 0.00 | 0.00 | 0.00 | 42 | 1020.6 |
| 20260503172021 | 73 | 2 | 1.7 | 6.1 | 0.00 | 0.00 | 0.00 | 42 | 1020.7 |
| 20260503171021 | 74 | 355 | 3.5 | 6.1 | 0.00 | 0.00 | 0.00 | 41 | 1020.8 |
| 20260503131039 | 62 | 337 | 1.7 | 4.3 | 0.00 | 0.00 | 0.00 | 67 | 1021.2 |
| 20260503081041 | 49 | 325 | 0.9 | 1.7 | 0.00 | 0.78 | 0.00 | 91 | 1019.2 |
| 20260503072022 | 50 | 311 | 0.9 | 0.9 | 0.00 | 1.15 | 0.00 | 90 | 1018.9 |
| 20260503071024 | 50 | 312 | 0.9 | 1.7 | 0.00 | 1.17 | 0.00 | 90 | 1018.9 |
| 20260503055024 | 49 | 299 | 0.9 | 0.9 | 0.00 | 1.51 | 0.00 | 90 | 1018.6 |
| 20260503054024 | 49 | 295 | 0.9 | 0.9 | 0.00 | 1.59 | 0.00 | 89 | 1018.6 |
| 20260503053025 | 50 | 298 | 0.9 | 0.9 | 0.00 | 1.59 | 0.00 | 88 | 1018.5 |
| 20260503052024 | 50 | 305 | 0.9 | 0.9 | 0.00 | 1.59 | 0.00 | 88 | 1018.6 |
| 20260503051024 | 50 | 301 | 0.9 | 1.7 | 0.00 | 1.59 | 0.00 | 87 | 1018.6 |
| 20260503050024 | 51 | 305 | 0.0 | 0.9 | 0.00 | 1.59 | 0.00 | 86 | 1018.4 |
| 20260503045024 | 52 | 302 | 0.9 | 0.9 | 0.00 | 1.59 | 1.59 | 84 | 1018.3 |
| 20260503044027 | 52 | 310 | 0.9 | 0.9 | 0.00 | 1.59 | 1.59 | 80 | 1018.3 |
| 20260503043045 | 53 | 315 | 0.9 | 0.9 | 0.00 | 1.59 | 1.59 | 79 | 1018.2 |
| 20260503042025 | 54 | 317 | 0.9 | 1.7 | 0.00 | 1.59 | 1.59 | 78 | 1018.1 |
| 20260503041025 | 54 | 315 | 0.9 | 0.9 | 0.00 | 1.60 | 1.59 | 78 | 1018.0 |
| 20260503040025 | 55 | 303 | 0.9 | 1.7 | 0.00 | 1.64 | 1.59 | 77 | 1017.9 |
| 20260503035025 | 56 | 307 | 0.9 | 1.7 | 0.00 | 1.68 | 1.59 | 75 | 1017.8 |